Lincoln, RI

6:41 AM EST on February 07, 2016 (GMT -0500)
North Central State

Weather History for KSFZ - November, 2012

Change the Weather History Date:

Saturday, November 3, 2012

  Actual Average Record
Temperature  
Mean Temperature 46 °F -  
Max Temperature 53 °F 52 °F 75 °F (2003)
Min Temperature 39 °F 35 °F 24 °F (2002)
Degree Days  
Heating Degree Days 19    
Moisture  
Dew Point 30 °F    
Average Humidity 58    
Maximum Humidity 70    
Minimum Humidity 44    
Precipitation  
Precipitation 0.00 in - - ()
Sea Level Pressure  
Sea Level Pressure 29.71 in    
Wind  
Wind Speed 9 mph (WNW)    
Max Wind Speed 16 mph    
Max Gust Speed 23 mph    
Visibility 10 miles    
Events      
Averages and records for this station are not official NWS values.
T = Trace of Precipitation, MM = Missing Value Source: NWS Daily Summary

Daily Weather History Graph

Daily Weather History Graph

Search for Another Location

Airport or City:

Trip Planner

Search our weather history database for the weather conditions in past years. The results will help you decide how hot, cold, wet, or windy it might be!

Date:

Astronomy

Nov. 03, 2012 Rise Set
Actual Time 7:21 AM EDT 5:37 PM EDT
Civil Twilight 6:52 AM EDT 6:06 PM EDT
Nautical Twilight 6:19 AM EDT 6:39 PM EDT
Astronomical Twilight 5:46 AM EDT 7:11 PM EDT
Moon 9:13 PM EDT (11/3) 11:25 AM EDT (11/3)
Length of Visible Light 11h 13m
Length of Day
10h 15m
Waning Gibbous, 80% of the Moon is Illuminated
Nov 3
Waning Gibbous
Nov 6
Last Quarter
Nov 13
New
Nov 20
First Quarter
Nov 28
Full

Hourly Weather History & Observations

Time (EDT) Temp. Windchill Dew Point Humidity Pressure Visibility Wind Dir Wind Speed Gust Speed Precip Events Conditions
12:15 AM 41.0 °F 36.4 °F 30.2 °F 65% 29.61 in 10.0 mi West 6.9 mph - N/A   Clear
12:35 AM 41.0 °F 35.8 °F 30.2 °F 65% 29.62 in 10.0 mi West 8.1 mph - N/A   Clear
12:55 AM 41.0 °F 36.4 °F 30.2 °F 65% 29.62 in 10.0 mi West 6.9 mph - N/A   Clear
1:15 AM 41.0 °F 35.8 °F 30.2 °F 65% 29.62 in 10.0 mi WNW 8.1 mph - N/A   Partly Cloudy
1:35 AM 41.0 °F 36.4 °F 30.2 °F 65% 29.63 in 10.0 mi West 6.9 mph - N/A   Mostly Cloudy
1:55 AM 41.0 °F 37.1 °F 30.2 °F 65% 29.63 in 10.0 mi West 5.8 mph - N/A   Overcast
2:15 AM 41.0 °F 34.7 °F 30.2 °F 65% 29.63 in 10.0 mi West 10.4 mph - N/A   Overcast
2:35 AM 41.0 °F 35.2 °F 30.2 °F 65% 29.63 in 10.0 mi WNW 9.2 mph - N/A   Overcast
2:55 AM 41.0 °F 34.7 °F 30.2 °F 65% 29.63 in 10.0 mi WNW 10.4 mph - N/A   Overcast
3:15 AM 41.0 °F 35.2 °F 30.2 °F 65% 29.63 in 10.0 mi WNW 9.2 mph - N/A   Overcast
3:35 AM 41.0 °F 35.8 °F 30.2 °F 65% 29.63 in 10.0 mi WNW 8.1 mph - N/A   Overcast
3:55 AM 41.0 °F 35.8 °F 30.2 °F 65% 29.63 in 10.0 mi WNW 8.1 mph 16.1 mph N/A   Overcast
4:15 AM 41.0 °F 35.2 °F 30.2 °F 65% 29.63 in 10.0 mi West 9.2 mph - N/A   Overcast
4:35 AM 41.0 °F 35.2 °F 30.2 °F 65% 29.63 in 10.0 mi West 9.2 mph - N/A   Overcast
4:55 AM 41.0 °F 34.7 °F 30.2 °F 65% 29.63 in 10.0 mi West 10.4 mph - N/A   Overcast
5:15 AM 41.0 °F 36.4 °F 30.2 °F 65% 29.64 in 10.0 mi WNW 6.9 mph - N/A   Overcast
5:35 AM 41.0 °F 36.4 °F 30.2 °F 65% 29.64 in 10.0 mi WNW 6.9 mph - N/A   Overcast
5:55 AM 41.0 °F 35.8 °F 30.2 °F 65% 29.64 in 10.0 mi WNW 8.1 mph - N/A   Overcast
6:15 AM 41.0 °F 35.2 °F 32.0 °F 70% 29.65 in 10.0 mi NW 9.2 mph - N/A   Overcast
6:35 AM 41.0 °F 35.8 °F 30.2 °F 65% 29.65 in 10.0 mi WNW 8.1 mph - N/A   Overcast
6:55 AM 41.0 °F 34.3 °F 32.0 °F 70% 29.66 in 10.0 mi NW 11.5 mph - N/A   Overcast
7:15 AM 41.0 °F 34.3 °F 32.0 °F 70% 29.67 in 10.0 mi WNW 11.5 mph - N/A   Overcast
7:35 AM 42.8 °F 38.0 °F 32.0 °F 66% 29.68 in 10.0 mi WNW 8.1 mph - N/A   Overcast
7:55 AM 42.8 °F 37.0 °F 32.0 °F 66% 29.68 in 10.0 mi WNW 10.4 mph - N/A   Overcast
8:15 AM 42.8 °F 37.0 °F 32.0 °F 66% 29.70 in 10.0 mi WNW 10.4 mph - N/A   Overcast
8:35 AM 42.8 °F 37.5 °F 32.0 °F 66% 29.70 in 10.0 mi WNW 9.2 mph - N/A   Overcast
8:55 AM 42.8 °F 38.6 °F 30.2 °F 61% 29.70 in 10.0 mi NW 6.9 mph - N/A   Overcast
9:15 AM 42.8 °F 38.0 °F 32.0 °F 66% 29.71 in 10.0 mi NW 8.1 mph - N/A   Overcast
9:35 AM 44.6 °F 40.2 °F 32.0 °F 61% 29.71 in 10.0 mi WNW 8.1 mph - N/A   Mostly Cloudy
9:55 AM 44.6 °F 40.2 °F 33.8 °F 66% 29.71 in 10.0 mi WNW 8.1 mph - N/A   Partly Cloudy
10:15 AM 44.6 °F 38.8 °F 32.0 °F 61% 29.71 in 10.0 mi NW 11.5 mph 16.1 mph N/A   Partly Cloudy
10:35 AM 46.4 °F 40.7 °F 32.0 °F 57% 29.71 in 10.0 mi NW 12.7 mph 17.3 mph N/A   Clear
10:55 AM 48.2 °F - 32.0 °F 54% 29.72 in 10.0 mi NW 11.5 mph 16.1 mph N/A   Clear
11:15 AM 48.2 °F - 33.8 °F 58% 29.72 in 10.0 mi WNW 11.5 mph 17.3 mph N/A   Clear
11:35 AM 50.0 °F - 33.8 °F 54% 29.72 in 10.0 mi NW 10.4 mph 18.4 mph N/A   Clear
11:55 AM 50.0 °F - 32.0 °F 50% 29.71 in 10.0 mi NW 11.5 mph - N/A   Clear
12:15 PM 51.8 °F - 33.8 °F 50% 29.71 in 10.0 mi NNW 13.8 mph - N/A   Clear
12:35 PM 51.8 °F - 32.0 °F 47% 29.70 in 10.0 mi NW 9.2 mph - N/A   Partly Cloudy
12:55 PM 51.8 °F - 33.8 °F 50% 29.70 in 10.0 mi NNW 11.5 mph 18.4 mph N/A   Partly Cloudy
1:15 PM 51.8 °F - 32.0 °F 47% 29.70 in 10.0 mi NNW 10.4 mph 16.1 mph N/A   Partly Cloudy
1:35 PM 51.8 °F - 32.0 °F 47% 29.70 in 10.0 mi WNW 10.4 mph 23.0 mph N/A   Partly Cloudy
1:55 PM 51.8 °F - 33.8 °F 50% 29.70 in 10.0 mi WNW 10.4 mph 17.3 mph N/A   Partly Cloudy
2:15 PM 51.8 °F - 32.0 °F 47% 29.70 in 10.0 mi NW 9.2 mph 16.1 mph N/A   Partly Cloudy
2:35 PM 53.6 °F - 33.8 °F 47% 29.70 in 10.0 mi WNW 16.1 mph 20.7 mph N/A   Mostly Cloudy
2:55 PM 51.8 °F - 30.2 °F 44% 29.70 in 10.0 mi NW 9.2 mph 17.3 mph N/A   Mostly Cloudy
3:15 PM 51.8 °F - 33.8 °F 50% 29.70 in 10.0 mi NNW 11.5 mph 16.1 mph N/A   Mostly Cloudy
3:35 PM 51.8 °F - 33.8 °F 50% 29.71 in 10.0 mi NW 9.2 mph 19.6 mph N/A   Mostly Cloudy
3:55 PM 48.2 °F - 30.2 °F 50% 29.72 in 10.0 mi WNW 11.5 mph 20.7 mph N/A   Mostly Cloudy
4:15 PM 50.0 °F - 30.2 °F 47% 29.72 in 10.0 mi NW 13.8 mph 19.6 mph N/A   Mostly Cloudy
4:35 PM 48.2 °F - 28.4 °F 46% 29.73 in 10.0 mi WNW 12.7 mph 18.4 mph N/A   Partly Cloudy
4:55 PM 46.4 °F 41.9 °F 28.4 °F 50% 29.73 in 10.0 mi WNW 9.2 mph - N/A   Scattered Clouds
5:15 PM 46.4 °F 41.1 °F 28.4 °F 50% 29.74 in 10.0 mi WNW 11.5 mph 18.4 mph N/A   Mostly Cloudy
5:35 PM 46.4 °F 41.1 °F 28.4 °F 50% 29.74 in 10.0 mi NW 11.5 mph 18.4 mph N/A   Scattered Clouds
5:55 PM 46.4 °F 41.1 °F 28.4 °F 50% 29.75 in 10.0 mi WNW 11.5 mph - N/A   Mostly Cloudy
6:15 PM 46.4 °F 41.1 °F 28.4 °F 50% 29.76 in 10.0 mi NW 11.5 mph 21.9 mph N/A   Overcast
6:35 PM 44.6 °F 39.7 °F 28.4 °F 53% 29.77 in 10.0 mi NW 9.2 mph 17.3 mph N/A   Overcast
6:55 PM 44.6 °F 38.4 °F 28.4 °F 53% 29.77 in 10.0 mi NW 12.7 mph 20.7 mph N/A   Overcast
7:15 PM 44.6 °F 39.7 °F 28.4 °F 53% 29.77 in 10.0 mi WNW 9.2 mph 18.4 mph N/A   Overcast
7:35 PM 44.6 °F 39.7 °F 28.4 °F 53% 29.78 in 10.0 mi NW 9.2 mph - N/A   Overcast
7:55 PM 44.6 °F 39.7 °F 28.4 °F 53% 29.78 in 10.0 mi NW 9.2 mph 17.3 mph N/A   Overcast
8:15 PM 44.6 °F 41.4 °F 28.4 °F 53% 29.78 in 10.0 mi NW 5.8 mph 16.1 mph N/A   Mostly Cloudy
8:35 PM 42.8 °F 38.6 °F 28.4 °F 57% 29.79 in 10.0 mi NW 6.9 mph - N/A   Partly Cloudy
8:55 PM 42.8 °F 38.6 °F 28.4 °F 57% 29.79 in 10.0 mi WNW 6.9 mph - N/A   Clear
9:15 PM 42.8 °F 37.0 °F 28.4 °F 57% 29.80 in 10.0 mi WNW 10.4 mph - N/A   Clear
9:35 PM 42.8 °F 38.6 °F 26.6 °F 53% 29.80 in 10.0 mi WNW 6.9 mph - N/A   Clear
9:55 PM 41.0 °F 35.8 °F 26.6 °F 57% 29.80 in 10.0 mi WNW 8.1 mph - N/A   Clear
10:15 PM 41.0 °F 35.2 °F 26.6 °F 57% 29.80 in 10.0 mi WNW 9.2 mph - N/A   Clear
10:35 PM 39.2 °F 33.6 °F 26.6 °F 61% 29.80 in 10.0 mi WNW 8.1 mph - N/A   Clear
10:55 PM 39.2 °F 32.5 °F 26.6 °F 61% 29.80 in 10.0 mi WNW 10.4 mph - N/A   Clear
11:15 PM 39.2 °F 33.6 °F 26.6 °F 61% 29.80 in 10.0 mi WNW 8.1 mph - N/A   Clear
11:35 PM 39.2 °F 33.6 °F 26.6 °F 61% 29.80 in 10.0 mi WNW 8.1 mph - N/A   Clear
11:55 PM 39.2 °F 34.2 °F 26.6 °F 61% 29.80 in 10.0 mi West 6.9 mph - N/A   Clear